Location: Unspecified
(54.1780°N, 0.0000°E)
Time: 09:05:28
(UTC+00:00)

Altair - Pass Details

Date: 25 June 2019
Orbit: 1501 x 1683 km, 47.2° (Epoch: 24 August)

Event Time Altitude Azimuth Distance (km) Brightness Sun altitude
Rises 23:22:10 0° 275° (W) 4,781 10.3 -12.0°
Reaches altitude 10° 23:25:20 10° 271° (W) 3,820 9.7 -12.0°
Maximum altitude 23:34:34 49° 200° (SSW) 2,026 7.8 -12.2°
Drops below altitude 10° 23:44:04 10° 130° (SE) 3,927 9.2 -12.3°
Sets 23:47:22 0° 125° (SE) 4,924 9.8 -12.4°
